Tracking 33744 objects as of 12-Apr-2026
HD Live streaming from Space Station
objects crossing your sky now

STARLINK-36862

Track STARLINK-36862 now!
10-day predictions
STARLINK-36862 is classified as:


NORAD ID: 68003
Int'l Code: 2026-039T
Perigee: 486.2 km
Apogee: 489.0 km
Inclination: 43.0 °
Period: 94.2 minutes
Semi major axis: 6858 km
RCS: Unknown
Launch date: February 27, 2026
Source: United States (US)
Launch site: AIR FORCE WESTERN TEST RANGE (AFWTR)
Your satellite tracking list
Your tracking list is empty




NASA's NSSDC Master Catalog

Two Line Element Set (TLE):
1 68003U 26039T   26101.67595115  .00032230  00000-0  11451-2 0  9990
2 68003  42.9993 223.0374 0002011 273.5588  86.5034 15.28441307  6746
Source of the keplerian elements: AFSPC